Other Surface Observations
Issued by NWS

Home | Current Version | Previous Version | Text Only | Print | Product List | Glossary On
Versions: 1 2 3 4 5 6 7 8 9 10 11 12 13 14 15 16 17 18 19 20 21 22 23 24 25 26 27 28 29 30 31 32 33 34 35 36 37 38 39 40 41 42 43 44 45 46 47 48 49 50
000
SXUS52 KTAE 222118
OSOTAE
OSOTAE
North Florida/South Alabama/Southwest Georgia Weather Roundup
National Weather Service Tallahassee Florida
500 PM EDT TUE JUL 22 2014

Note: "fair" indicates few or no clouds below 12,000 feet with no
significant weather and/or obstructions to visibility.

!FLZ017-115-028-034-025-222200
...North Florida...

CITY           SKY/WX    TMP DP  RH WIND       PRES   REMARKS
TALLAHASSEE    PTSUNNY   91  67  44 NW3       30.02F HX  94
APALACHICOLA   SUNNY     88  72  58 S8        30.02F HX  94
PERRY          MOSUNNY   88  70  55 SW9       30.03F HX  92
CROSS CITY       N/A     89  74  60 VRB3      30.03F HX  98
HOMERVILLE     CLOUDY    90  73  58 N3        30.04S HX  98
JACKSONVILLE   PTSUNNY   84  74  71 NE7       30.04R HX  91
$$

!FLZ112-006-005-002-011-222200
...Florida Panhandle...

CITY           SKY/WX    TMP DP  RH WIND       PRES   REMARKS
MARIANNA       PTSUNNY   90  71  53 CALM      30.00F HX  96
BONIFAY        FAIR      86  73  65 S6        30.02F HX  93
PANAMA CITY NW FAIR      86  74  67 S7        30.02F HX  94
TYNDALL AFB    PTSUNNY   85  74  70 SW8       30.04F HX  93
TYND DRONE APT FAIR      84  74  70 SW8G16    30.02F HX  91
DE FUNIAK SPR  FAIR      81  72  75 CALM      30.03F
EGLIN AFB      PTSUNNY   85  74  70 SW7       30.01F HX  93
DESTIN         MOSUNNY   86  75  69 VRB7      30.02F HX  95
HURLBURT       MOSUNNY   85  73  66 S9        30.01F HX  92
CRESTVIEW      PTSUNNY   82  74  76 E5        30.03F
PENSACOLA      MOSUNNY   84  73  69 SE10      30.02F HX  90
$$

!ALZ063-066-222200
...South Alabama...

CITY           SKY/WX    TMP DP  RH WIND       PRES   REMARKS
DOTHAN         MOSUNNY   86  69  56 CALM      30.06F HX  90
OZARK CAIRNS   PTSUNNY   81  74  79 S5        30.03F
FT RUCKER HELI PTSUNNY   85  72  65 VRB7      30.02F HX  91
RUCKER HELI 3  FAIR      83  72  67 SE6       30.05F
RUCKER HELI 2  FAIR      83  72  69 VRB3      30.02F
FLORALA APT    PTSUNNY   83  73  72 S5        30.04F
ANDALUSIA      PTSUNNY   87  73  62 VRB5      30.03F HX  94
TROY           PTSUNNY   87  69  54 E7        30.04F HX  91
EUFALA         FAIR      87  70  56 VRB3      30.02  HX  92
MOBILE         PTSUNNY   81  74  79 VRB3      30.02F
$$

!GAZ120>161-222200
...Southwest and South Central Georgia...

CITY           SKY/WX    TMP DP  RH WIND       PRES   REMARKS
THOMASVILLE    FAIR      90  70  51 CALM      30.04S HX  95
BAINBRIDGE     SUNNY     90  72  55 CALM      30.02F HX  96
MOODY AFB      SUNNY     86  77  73 CALM      30.03F HX  96
VALDOSTA       PTSUNNY   91  70  49 CALM      30.03F HX  96
MOULTRIE       PTSUNNY   88  70  55 CALM      30.04F HX  92
BLAKELY        SUNNY     88  70  55 CALM      30.03F HX  92
ALBANY         SUNNY     88  69  53 CALM      30.04F HX  92
TIFTON         FAIR      85  68  55 S3        30.04F
FITZGERALD     FAIR      87  69  55 S3        30.07S HX  91
CORDELE        FAIR      87  67  51 S6        30.05F
AMERICUS       CLOUDY    82  72  69 E10G16    30.07S
$$

!GMZ750-755-770-775-222200
...Coastal and Buoy Obs...

STATION/POSITION TIME  TEMP    WIND        PRES    VSBY  WAVE
                       AIR SEA DIR/SP/G                  HT/PER
                 (UTC) (F)     (DEG/KT/KT) (MB)    (MI)  (FT/S)
KEATON BEACH     2100   83     240/  5/  5 1017.2F
CEDAR KEY        2054   85     280/  6/  8 1017.4F
C TOWER          2100   83     220/  3/  4 1016.8F
APALACHICOLA BUO 2100   85 89  280/  2/  4 1017.0F         1/ 3
PANAMA CITY BUOY 2034   81 84  250/  8/ 10 1016.3F         1/ 3
MOBILE BUOY      2005   82 86  190/ 10/ 12 1016.3
ORANGE BCH AL BU 2100   83 84  200/  6/  8 1016.4F         1/ 4
$$



USA.gov is the U.S. government's official web portal to all federal, state and local government web resources and services.